CDT,Max TemperatureF,Mean TemperatureF,Min TemperatureF,Max Dew PointF,MeanDew PointF,Min DewpointF,Max Humidity, Mean Humidity, Min Humidity, Max Sea Level PressureIn, Mean Sea Level PressureIn, Min Sea Level PressureIn, Max VisibilityMiles, Mean VisibilityMiles, Min VisibilityMiles, Max Wind SpeedMPH, Mean Wind SpeedMPH, Max Gust SpeedMPH,PrecipitationIn, CloudCover, Events, WindDirDegrees
2011-9-1,93,82,71,72,66,57,94,66,31,29.88,29.78,29.72,10,8,3,18,11,23,0.00,0,,172
2011-9-2,80,74,69,72,70,66,94,89,70,29.98,29.88,29.76,10,6,2,15,6,30,0.34,3,Rain,22
2011-9-3,71,65,57,70,63,48,94,83,46,30.04,29.91,29.85,10,7,2,14,4,20,1.02,6,Rain,334
2011-9-4,68,60,51,48,45,39,88,62,37,30.19,30.12,30.05,10,10,10,22,10,26,0.00,1,,327
2011-9-5,64,54,44,48,44,37,93,76,37,30.25,30.22,30.20,10,10,10,5,3,,0.00,0,,356
2011-9-6,,,,,,,,,,,,,,,,,,,,,,
2011-9-7,,,,,,,,,,,,,,,,,,,,,,
2011-9-8,,,,,,,,,,,,,,,,,,,,,,
2011-9-9,,,,,,,,,,,,,,,,,,,,,,
2011-9-10,,,,,,,,,,,,,,,,,,,,,,
2011-9-11,,,,,,,,,,,,,,,,,,,,,,
2011-9-12,87,76,62,57,52,45,57,47,25,29.94,29.85,29.78,10,10,10,17,12,26,0.00,0,,301
2011-9-13,69,58,48,46,40,28,87,53,21,30.08,30.03,29.95,10,10,10,12,8,16,0.00,0,,338
2011-9-14,59,52,42,46,27,9,77,43,14,30.34,30.23,30.07,10,10,10,16,10,24,0.00,1,Rain,344
2011-9-15,57,44,32,34,22,7,87,47,13,30.44,30.38,30.29,10,10,4,10,4,16,0.06,0,,33
2011-9-16,55,50,44,41,35,28,81,59,44,30.31,30.26,30.19,10,10,10,15,5,20,0.00,8,Rain,140
2011-9-17,60,54,48,41,39,34,71,57,36,30.20,30.15,30.08,10,10,10,16,10,22,0.00,8,,136
2011-9-18,57,56,53,52,46,43,94,71,63,30.05,30.02,30.01,10,9,4,7,6,,0.00,8,Rain,145
2011-9-19,75,60,44,54,33,18,100,40,11,30.07,30.00,29.96,10,10,0,12,5,18,0.00,0,Fog,333
2011-9-20,71,63,55,52,41,28,88,49,20,29.95,29.86,29.80,10,10,7,26,13,36,0.11,2,Rain,205
2011-9-21,62,56,51,43,41,37,71,56,45,30.11,29.96,29.86,10,10,10,23,15,31,0.00,7,,286
2011-9-22,60,52,44,46,39,28,93,65,31,30.17,30.13,30.10,10,9,2,9,6,,0.00,7,Rain,314
2011-9-23,66,50,35,37,32,27,87,55,23,30.17,30.11,30.03,10,10,7,9,2,,0.00,0,,14
2011-9-24,66,52,37,43,35,30,93,59,26,30.04,30.01,29.97,10,10,10,12,4,,0.00,1,,94
2011-9-25,66,52,37,41,36,30,87,59,26,30.02,29.96,29.89,10,10,10,13,3,17,0.00,4,,25
2011-9-26,69,58,48,52,47,43,94,68,38,29.90,29.84,29.75,10,9,5,21,8,30,0.00,6,Rain,345
2011-9-27,71,62,53,52,47,45,72,58,43,29.94,29.89,29.81,10,10,10,13,7,17,0.00,5,Rain,355
2011-9-28,82,65,48,54,44,28,94,55,14,29.88,29.84,29.79,10,9,2,9,4,,0.00,0,,297
2011-9-29,69,63,57,43,32,21,59,32,16,30.10,29.92,29.77,10,10,7,37,15,51,0.00,1,,316
2011-9-30,66,55,44,39,31,16,81,45,15,30.25,30.19,30.14,10,10,4,15,11,23,0.00,0,,338